Weather History for Marshfield, WI

Change the Weather History Date:

Sunday, January 6, 2013

  Actual Average Record
Temperature  
Mean Temperature 18 °F -  
Max Temperature 25 °F 21 °F 47 °F (1933)
Min Temperature 7 °F 5 °F -29 °F (1924)
Degree Days  
Heating Degree Days 48    
Moisture  
Dew Point 15 °F    
Average Humidity 84    
Maximum Humidity 93    
Minimum Humidity 74    
Precipitation  
Precipitation 0.00 in - - ()
Sea Level Pressure  
Sea Level Pressure 30.09 in    
Wind  
Wind Speed 10 mph (WNW)    
Max Wind Speed 16 mph    
Max Gust Speed -    
Visibility 8 miles    
Events Snow    
Averages and records for this station are not official NWS values.
T = Trace of Precipitation, MM = Missing Value Source: NWS Daily Summary

Daily Weather History Graph

Daily Weather History Graph

Search for Another Location

Airport:

Trip Planner

Search our weather history database for the weather conditions in past years. The results will help you decide how hot, cold, wet, or windy it might be!

Date:

Astronomy

Jan. 06, 2013 Rise Set
Actual Time 7:37 AM CST 4:36 PM CST
Civil Twilight 7:04 AM CST 5:09 PM CST
Nautical Twilight 6:27 AM CST 5:46 PM CST
Astronomical Twilight 5:52 AM CST 6:21 PM CST
Moon 1:46 AM CST (1/6) 12:08 PM CST (1/6)
Length of Visible Light 10h 05m
Length of Day
8h 59m
Waning Crescent, 33% of the Moon is Illuminated
Jan 6
Waning Crescent
Jan 11
New
Jan 18
First Quarter
Jan 26
Full
Feb 3
Last Quarter

Hourly Weather History & Observations

Time (CST) Temp. Windchill Dew Point Humidity Pressure Visibility Wind Dir Wind Speed Gust Speed Precip Events Conditions
12:54 AM 18.0 °F 6.1 °F 12.9 °F 81% 29.92 in 6.0 mi WNW 10.4 mph - N/A   Haze
1:54 AM 17.1 °F 5.0 °F 12.0 °F 81% 29.93 in 6.0 mi WNW 10.4 mph - N/A   Haze
2:41 AM 17.6 °F 5.0 °F 12.2 °F 79% 29.90 in 7.0 mi NW 11.5 mph - N/A   Overcast
2:54 AM 19.0 °F 5.6 °F 14.0 °F 81% 29.96 in 7.0 mi NW 13.8 mph - N/A   Overcast
3:12 AM 19.4 °F 6.6 °F 14.0 °F 80% 29.91 in 7.0 mi NW 12.7 mph - N/A   Overcast
3:54 AM 19.9 °F 8.6 °F 17.1 °F 89% 29.97 in 4.0 mi NW 10.4 mph - 0.00 in Snow Light Snow
4:07 AM 19.4 °F 7.2 °F 17.6 °F 93% 29.91 in 2.5 mi NW 11.5 mph - 0.00 in Snow Light Snow
4:18 AM 19.4 °F 6.6 °F 17.6 °F 93% 29.91 in 4.0 mi NW 12.7 mph - 0.00 in   Overcast
4:54 AM 19.9 °F 7.3 °F 17.1 °F 89% 29.98 in 4.0 mi NW 12.7 mph - 0.00 in Snow Light Snow
5:54 AM 19.0 °F 5.6 °F 16.0 °F 88% 30.01 in 6.0 mi WNW 13.8 mph - 0.00 in   Clear
6:10 AM 19.4 °F 6.0 °F 17.6 °F 93% 29.96 in 6.0 mi WNW 13.8 mph - N/A   Scattered Clouds
6:19 AM 19.4 °F 5.5 °F 17.6 °F 93% 29.96 in 7.0 mi NW 15.0 mph - N/A   Mostly Cloudy
6:34 AM 21.2 °F 7.3 °F 17.6 °F 86% 29.97 in 7.0 mi NW 16.1 mph - N/A   Overcast
6:54 AM 21.9 °F 9.8 °F 19.0 °F 89% 30.04 in 9.0 mi NW 12.7 mph - N/A   Overcast
7:54 AM 21.9 °F 10.4 °F 19.0 °F 89% 30.07 in 10.0 mi NW 11.5 mph - N/A   Overcast
8:36 AM 23.0 °F 12.4 °F 19.4 °F 86% 30.03 in 10.0 mi NW 10.4 mph - N/A   Overcast
8:54 AM 23.0 °F 11.7 °F 19.0 °F 85% 30.11 in 10.0 mi WNW 11.5 mph - N/A   Overcast
9:54 AM 24.1 °F 13.1 °F 19.0 °F 81% 30.15 in 10.0 mi NW 11.5 mph - N/A   Overcast
10:54 AM 24.1 °F 12.0 °F 19.0 °F 81% 30.17 in 10.0 mi NW 13.8 mph - N/A   Overcast
11:54 AM 24.1 °F 14.4 °F 18.0 °F 77% 30.16 in 10.0 mi NW 9.2 mph - N/A   Overcast
12:54 PM 24.1 °F 16.0 °F 18.0 °F 77% 30.17 in 10.0 mi WNW 6.9 mph - N/A   Overcast
1:54 PM 25.0 °F 15.5 °F 18.0 °F 75% 30.18 in 10.0 mi NW 9.2 mph - N/A   Overcast
2:54 PM 24.1 °F 16.0 °F 17.1 °F 75% 30.20 in 10.0 mi West 6.9 mph - N/A   Overcast
3:27 PM 23.0 °F 14.7 °F 15.8 °F 74% 30.14 in 10.0 mi WNW 6.9 mph - N/A   Scattered Clouds
3:54 PM 23.0 °F 15.8 °F 16.0 °F 74% 30.23 in 10.0 mi West 5.8 mph - N/A   Partly Cloudy
4:54 PM 21.0 °F 16.2 °F 14.0 °F 74% 30.23 in 10.0 mi West 3.5 mph - N/A   Clear
5:54 PM 18.0 °F 11.1 °F 12.9 °F 81% 30.23 in 10.0 mi SSW 4.6 mph - N/A   Clear
6:54 PM 17.1 °F 10.0 °F 10.9 °F 77% 30.25 in 10.0 mi West 4.6 mph - N/A   Clear
7:54 PM 12.9 °F 6.9 °F 10.0 °F 88% 30.24 in 8.0 mi SW 3.5 mph - N/A   Clear
8:54 PM 15.1 °F 7.7 °F 10.9 °F 84% 30.24 in 10.0 mi SW 4.6 mph - N/A   Clear
9:54 PM 12.9 °F 6.9 °F 10.0 °F 88% 30.24 in 9.0 mi SSW 3.5 mph - N/A   Clear
10:54 PM 10.9 °F 2.9 °F 8.1 °F 88% 30.24 in 9.0 mi WSW 4.6 mph - N/A   Clear
11:54 PM 7.0 °F -3.3 °F 3.9 °F 87% 30.22 in 7.0 mi South 5.8 mph - N/A   Clear